Вернуться в каталог

WISDOM B

АктивенНаукаSSO
NORAD 66765·PAYLOAD·🇯🇵 Japan
Это название спутника еще не подтверждено официальными источниками.

Запущен Nov 28, 2025 с Vandenberg Space Force Base

Loading…

Ближайшие Пролёты (ближайшие 24 часа)

TLE

СвежийSource: Space-Track

Эпоха: Sep 14, 2026, 10:42 UTC

1 66765U 25276DD  26257.44647706  .00008314  00000-0  32963-3 0  9994
2 66765  97.4144 330.9576 0001040  75.4622 284.6732 15.25640419 44079

Отслеживайте WISDOM B в реальном времени с AllMySat

Download on the App Store